Big Rapids, MI

5:29 PM EDT on August 28, 2016 (GMT -0400)
Roben-Hood

Weather History for KRQB - September, 2013

Change the Weather History Date:

Monday, September 9, 2013

  Actual Average Record
Temperature  
Mean Temperature 68 °F -  
Max Temperature 80 °F 74 °F 91 °F (2002)
Min Temperature 56 °F 49 °F 35 °F (1975)
Cooling Degree Days 3    
Growing Degree Days 18 (Base 50)    
Moisture  
Dew Point 61 °F    
Average Humidity 83    
Maximum Humidity 100    
Minimum Humidity 68    
Precipitation  
Precipitation 0.10 in - - ()
Sea Level Pressure  
Sea Level Pressure 29.96 in    
Wind  
Wind Speed 6 mph (SSE)    
Max Wind Speed 12 mph    
Max Gust Speed 18 mph    
Visibility 10 miles    
Events Rain    
Averages and records for this station are not official NWS values.
T = Trace of Precipitation, MM = Missing Value Source: NWS Daily Summary

Daily Weather History Graph

Daily Weather History Graph

Search for Another Location

Airport or City:

Trip Planner

Search our weather history database for the weather conditions in past years. The results will help you decide how hot, cold, wet, or windy it might be!

Date:

Astronomy

Sep. 09, 2013 Rise Set
Actual Time 7:14 AM EDT 8:02 PM EDT
Civil Twilight 6:45 AM EDT 8:31 PM EDT
Nautical Twilight 6:11 AM EDT 9:06 PM EDT
Astronomical Twilight 5:35 AM EDT 9:42 PM EDT
Moon 11:45 AM EDT (9/9) 10:08 PM EDT (9/9)
Length of Visible Light 13h 46m
Length of Day
12h 47m
Waxing Crescent, 19% of the Moon is Illuminated
Sep 9
Waxing Crescent
Sep 12
First Quarter
Sep 19
Full
Sep 26
Last Quarter
Oct 4
New

Hourly Weather History & Observations

Time (EDT) Temp. Heat Index Dew Point Humidity Pressure Visibility Wind Dir Wind Speed Gust Speed Precip Events Conditions
12:15 AM 57.0 °F - 49.5 °F 76% 30.07 in 10.0 mi East 3.5 mph - N/A   Clear
12:34 AM 56.8 °F - 50.0 °F 78% 30.07 in 10.0 mi East 3.5 mph - N/A   Clear
12:55 AM 56.8 °F - 50.2 °F 78% 30.07 in 10.0 mi East 3.5 mph - N/A   Clear
1:15 AM 57.2 °F - 50.2 °F 77% 30.06 in 10.0 mi ESE 8.1 mph - N/A   Clear
1:34 AM 57.9 °F - 50.0 °F 75% 30.06 in 10.0 mi SE 6.9 mph - N/A   Clear
1:55 AM 58.3 °F - 49.3 °F 72% 30.07 in 10.0 mi ESE 8.1 mph - N/A   Mostly Cloudy
2:15 AM 58.3 °F - 49.5 °F 72% 30.06 in 10.0 mi ESE 6.9 mph - N/A   Mostly Cloudy
2:34 AM 58.1 °F - 50.0 °F 74% 30.06 in 10.0 mi SE 8.1 mph - N/A   Mostly Cloudy
2:55 AM 57.9 °F - 50.2 °F 75% 30.05 in 10.0 mi ESE 6.9 mph - N/A   Overcast
3:15 AM 58.1 °F - 50.2 °F 75% 30.04 in 10.0 mi ESE 8.1 mph - N/A   Overcast
3:34 AM 58.1 °F - 50.0 °F 74% 30.03 in 10.0 mi SE 9.2 mph - N/A   Overcast
3:55 AM 58.1 °F - 50.0 °F 74% 30.04 in 10.0 mi East 8.1 mph - N/A   Overcast
4:15 AM 58.5 °F - 50.0 °F 73% 30.03 in 10.0 mi ESE 9.2 mph - N/A   Overcast
4:35 AM 58.5 °F - 50.0 °F 73% 30.03 in 10.0 mi East 3.5 mph - N/A   Overcast
4:55 AM 59.0 °F - 49.8 °F 72% 30.03 in 10.0 mi ESE 9.2 mph - N/A   Overcast
5:15 AM 59.0 °F - 50.0 °F 72% 30.02 in 10.0 mi ESE 6.9 mph - N/A   Mostly Cloudy
5:35 AM 58.6 °F - 49.8 °F 72% 30.03 in 10.0 mi ESE 4.6 mph - N/A   Scattered Clouds
5:55 AM 58.3 °F - 50.0 °F 74% 30.02 in 10.0 mi East 4.6 mph - N/A   Mostly Cloudy
6:15 AM 58.1 °F - 50.2 °F 75% 30.02 in 10.0 mi East 4.6 mph - N/A   Scattered Clouds
6:35 AM 58.1 °F - 50.5 °F 76% 30.02 in 10.0 mi East 5.8 mph - N/A   Mostly Cloudy
6:55 AM 58.1 °F - 50.9 °F 77% 30.01 in 10.0 mi ESE 5.8 mph - N/A   Overcast
7:14 AM 57.7 °F - 50.9 °F 78% 30.00 in 10.0 mi ESE 5.8 mph - N/A   Overcast
7:35 AM 58.1 °F - 51.3 °F 78% 30.01 in 10.0 mi ESE 6.9 mph - N/A   Overcast
7:55 AM 58.8 °F - 51.8 °F 77% 30.01 in 10.0 mi ESE 9.2 mph - N/A   Overcast
8:15 AM 59.4 °F - 52.0 °F 77% 30.01 in 10.0 mi ESE 9.2 mph - N/A   Overcast
8:35 AM 59.5 °F - 53.1 °F 79% 30.01 in 10.0 mi SE 5.8 mph - N/A Rain Light Rain
8:55 AM 58.6 °F - 54.3 °F 86% 30.00 in 7.0 mi SE 5.8 mph - 0.03 in Rain Rain
9:15 AM 58.8 °F - 58.8 °F 100% 30.00 in 7.0 mi SSE 4.6 mph - 0.02 in Rain Rain
9:35 AM 59.4 °F - 59.4 °F 100% 30.01 in 10.0 mi South 10.4 mph - 0.03 in   Overcast
9:54 AM 59.0 °F - 59.0 °F 100% 30.01 in 10.0 mi South 6.9 mph - 0.04 in Rain Rain
10:15 AM 59.0 °F - 59.0 °F 100% 30.01 in 10.0 mi SE 6.9 mph - 0.01 in Rain Light Rain
10:35 AM 59.2 °F - 59.2 °F 100% 30.00 in 7.0 mi SE 6.9 mph - 0.02 in Rain Light Rain
10:54 AM 59.5 °F - 59.5 °F 100% 30.00 in 7.0 mi SSE 5.8 mph - 0.02 in Rain Rain
11:15 AM 59.9 °F - 59.9 °F 100% 29.99 in 5.0 mi Calm Calm - 0.01 in Rain Light Rain
11:35 AM 60.8 °F - 60.8 °F 100% 29.99 in 10.0 mi SE 6.9 mph - 0.01 in   Overcast
11:54 AM 61.7 °F - 61.7 °F 100% 29.99 in 10.0 mi SE 8.1 mph - 0.01 in   Overcast
12:15 PM 63.5 °F - 63.5 °F 100% 29.99 in 10.0 mi SSE 4.6 mph - N/A   Overcast
12:35 PM 64.4 °F - 64.4 °F 100% 29.98 in 10.0 mi South 4.6 mph - N/A   Overcast
12:54 PM 64.8 °F - 64.8 °F 100% 29.98 in 10.0 mi SSE 4.6 mph - N/A   Overcast
1:15 PM 65.8 °F - 65.8 °F 100% 29.97 in 10.0 mi SE 5.8 mph - N/A   Overcast
1:35 PM 67.1 °F - 67.1 °F 100% 29.96 in 10.0 mi SSE 4.6 mph - N/A   Overcast
1:54 PM 68.2 °F - 67.8 °F 99% 29.96 in 10.0 mi Calm Calm - N/A   Overcast
2:15 PM 69.4 °F - 68.5 °F 97% 29.96 in 10.0 mi SSE 4.6 mph - N/A   Overcast
2:35 PM 71.1 °F - 69.3 °F 94% 29.95 in 10.0 mi South 4.6 mph - N/A   Overcast
2:54 PM 72.3 °F - 70.0 °F 92% 29.94 in 10.0 mi SSE 5.8 mph - N/A   Overcast
3:15 PM 74.8 °F - 71.2 °F 88% 29.93 in 10.0 mi SSE 8.1 mph - N/A   Scattered Clouds
3:35 PM 75.6 °F - 67.8 °F 77% 29.92 in 10.0 mi Calm Calm - N/A   Clear
3:54 PM 76.6 °F - 68.2 °F 75% 29.91 in 10.0 mi South 9.2 mph - N/A   Scattered Clouds
4:15 PM 77.9 °F - 68.9 °F 74% 29.89 in 10.0 mi South 5.8 mph - N/A   Scattered Clouds
4:35 PM 79.7 °F - 69.4 °F 71% 29.87 in 10.0 mi SSW 8.1 mph - N/A   Scattered Clouds
4:54 PM 79.7 °F - 69.1 °F 70% 29.88 in 10.0 mi SSW 9.2 mph - N/A   Scattered Clouds
5:15 PM 80.8 °F 83.9 °F 69.3 °F 68% 29.87 in 10.0 mi South 9.2 mph 18.4 mph N/A   Mostly Cloudy
5:35 PM 80.1 °F 82.9 °F 69.3 °F 69% 29.87 in 10.0 mi South 8.1 mph - N/A   Mostly Cloudy
5:55 PM 79.9 °F - 69.1 °F 69% 29.87 in 10.0 mi SSW 9.2 mph - N/A   Mostly Cloudy
6:15 PM 80.1 °F 82.9 °F 69.3 °F 69% 29.86 in 10.0 mi South 9.2 mph - N/A   Scattered Clouds
6:34 PM 80.1 °F 83.2 °F 69.8 °F 71% 29.86 in 10.0 mi South 9.2 mph - N/A   Clear
6:55 PM 79.7 °F - 69.8 °F 72% 29.86 in 10.0 mi South 6.9 mph - N/A   Clear
7:15 PM 79.2 °F - 70.2 °F 74% 29.86 in 10.0 mi South 3.5 mph - N/A   Clear
7:35 PM 78.3 °F - 70.2 °F 76% 29.85 in 10.0 mi South 4.6 mph - N/A   Clear
7:55 PM 77.4 °F - 70.2 °F 78% 29.85 in 10.0 mi South 4.6 mph - N/A   Clear
8:15 PM 76.6 °F - 70.2 °F 80% 29.85 in 10.0 mi SSE 4.6 mph - N/A   Clear
8:35 PM 75.9 °F - 70.2 °F 82% 29.84 in 10.0 mi South 8.1 mph - N/A   Clear
8:55 PM 75.4 °F - 70.2 °F 84% 29.84 in 10.0 mi South 10.4 mph - N/A   Clear
9:15 PM 75.2 °F - 70.0 °F 84% 29.85 in 10.0 mi South 10.4 mph - N/A   Clear
9:35 PM 74.7 °F - 70.5 °F 87% 29.85 in 10.0 mi South 11.5 mph - N/A   Clear
9:55 PM 74.3 °F - 71.1 °F 90% 29.84 in 10.0 mi South 10.4 mph - N/A   Clear
10:15 PM 74.3 °F - 71.1 °F 90% 29.84 in 10.0 mi South 9.2 mph - N/A   Clear
10:35 PM 73.8 °F - 71.8 °F 93% 29.85 in 10.0 mi South 8.1 mph - N/A   Clear
10:55 PM 73.4 °F - 72.5 °F 97% 29.84 in 7.0 mi South 9.2 mph - N/A   Clear
11:15 PM 73.8 °F - 73.0 °F 98% 29.84 in 7.0 mi South 8.1 mph - N/A   Clear
11:35 PM 73.6 °F - 73.0 °F 98% 29.84 in 7.0 mi South 8.1 mph - N/A   Clear
11:55 PM 73.4 °F - 73.2 °F 99% 29.84 in 7.0 mi South 8.1 mph - N/A   Clear